Showing default

TEMPSAT 1, 1512

Orbit data source: Space-Track

TEMPSAT 1, 1512 is a payload satellite owned by NRL (US) in LEO that was launched on Fri, 13 Aug 1965 UTC via a THOR ABLESTAR launch vehicle from the Air Force Western Test Range (AFWTR). Payload-class satellites include a variety of spacecraft equipped with specific instruments for various scientific and technological missions. These include communications satellites like Starlink; space stations such as the ISS; scientific satellites like the Hubble; Earth observation satellites from companies like Planet Labs, Umbra, and HawkEye 360; GPS; miniature CubeSats for education and research; and military/defense satellites.

Loading next visibility...
Identifier
1512, 1965-065E
Orbit
LEO
Country
Flag of USUS
Related business
Manufacturer
NRL
Mission
Operational spacecraft
Bus & Motor
NRL 14", Unknown motor
Mass
9 kg wet, 9 kg dry
Launch date (UTC)
1965-08-13 (60 years ago)
Launch vehicle
THOR ABLESTAR
Launch site
Air Force Western Test Range (AFWTR)
Object type
Payload
Rocket body
Debris
Shape & HBR
Unknown
Radar Cross Section
Small (<0.1 m²)

Expand to show TLE details & history
Last TLE update: 15 hours ago

TLE from 15 hours ago
0 TEMPSAT 1
1 01512U 65065E   25310.23779470  .00000077  00000-0  13424-3 0  9992
2 01512  89.9901 212.7004 0070279 153.3536 333.3281 13.33577536930338
Epoch: 2025-11-06T05:42Z
TLE epoch observation values (Epoch: 2025-11-06T05:42:25.462Z)
Latitude
53.77681°
Longitude
-98.61812°
Altitude
1,095.084 km
Speed
7.333 km/s
True Right ascension
02h 10m 44s
True Declination
53° 37' 12"
Sunlit
Object was in full shadow at epoch
Visualization orbit readout
Latitude
Unknown
Longitude
Unknown
Altitude
Unknown
Speed
Unknown
Apparent Right ascension
Unknown
Apparent Declination
Unknown
Sunlit
N/A
Visualization observer readout
Local Sidereal Time
17:02:09
Azimuth
Unknown
Elevation
Unknown
Doppler factor
Unknown
Orbital elements
Apogee altitude
1,183.142 km
Perigee altitude
1,077.604 km
Semi-major axis
7,508.51 km
Eccentricity
0.00703
Inclination
89.9901°
RAAN
212.7004°
Arg. of periapsis
153.3536°
True anomaly
332.96374°
Mean anomaly
333.3281°
Eccentric anomaly
333.14621°
Mean motion
3.3359 °/min
Orbital period
107.92 mins
BSTAR
0.00013424
Loading maneuver chart data...
Computing Atmospheric mass density...
Loading historical data...
Loading historical data...
Loading historical data...
Loading historical data...
Loading historical data...
Loading historical data...
Loading historical data...

Documentation

Showing up to 5 results
|